Location: Ch�tillon
(48.8024°N, 2.2935°E)
Time: 18:30:39
(UTC+00:00)

RS-15 - Pass Details

Date: 02 July 2022
Orbit: 1881 x 2163 km, 64.8° (Epoch: 11 August)

Event Time Altitude Azimuth Distance (km) Brightness Sun altitude
Rises 20:15:54 0° 302° (WNW) 5,670 12.9 -3.2°
Reaches altitude 10° 20:19:44 10° 310° (NW) 4,681 12.1 -3.7°
Maximum altitude 20:31:22 43° 20° (NNE) 2,812 9.1 -5.1°
Drops below altitude 10° 20:42:49 10° 90° (E) 4,623 9.6 -6.4°
Sets 20:46:33 0° 97° (E) 5,594 10.0 -6.8°
